Regional Weather Roundup
Issued by NWS Sioux Falls, SD

Home | Current Version | Previous Version | Text Only | Print | Product List | Glossary On
Versions: 1 2 3 4 5 6 7 8 9 10 11 12 13 14 15 16 17 18 19 20 21 22 23 24 25 26 27 28 29 30 31 32 33 34 35 36 37 38 39 40 41 42 43 44 45 46 47 48 49 50
909
ASUS43 KFSD 170410
RWRFSD

WEATHER ROUNDUP FOR SE SOUTH DAKOTA/SW MINNESOTA/NW IOWA
NATIONAL WEATHER SERVICE SIOUX FALLS SD
1000 PM CST SAT DEC 16 2017

NOTE: "FAIR" INDICATES FEW OR NO CLOUDS BELOW 12,000 FEET WITH NO
SIGNIFICANT WEATHER AND OR OBSTRUCTIONS TO VISIBILITY.


SDZ038>040-050-052>070-170500-
SOUTHEAST SOUTH DAKOTA

CITY           SKY/WX    TMP DP  RH WIND       PRES   REMARKS
BROOKINGS      CLOUDY    32  30  92 NE5       30.06R WCI  27
CHAMBERLAIN    CLOUDY    37  34  88 N3        30.07R
HURON          CLOUDY    32  31  96 CALM      30.08R
MADISON        CLOUDY    32  32 100 NE6       30.05S WCI  26
MITCHELL       CLOUDY    30  29  96 N6        30.07S WCI  24
SIOUX FALLS    CLOUDY    28  27  96 N6        30.04F WCI  22
WINNER         CLOUDY    37  32  82 N9        30.05F
YANKTON        PTCLDY    33  29  85 NE8       30.05R WCI  26
$$

MNZ071-072-080-081-089-090-097-098-170500-
SOUTHWEST MINNESOTA

CITY           SKY/WX    TMP DP  RH WIND       PRES   REMARKS
FAIRMONT       CLOUDY    28  26  92 N9        30.07S FOG     WCI  19
JACKSON        CLEAR     23  21  93 NE6       30.06R FOG     WCI  16
LUVERNE        CLOUDY    28  25  86 NE5       30.05S WCI  23
MARSHALL       CLOUDY    28  25  88 E5        30.09R WCI  23
MONTEVIDEO     CLOUDY    27  25  93 S6        30.10S WCI  20
PIPESTONE      CLOUDY    28  25  86 NE5       30.04S WCI  23
REDWOOD FALLS  CLOUDY    28  26  92 CALM      30.10R
WINDOM           N/A     25  14  63 N6        30.06S HAZE    WCI  18
WORTHINGTON    CLOUDY    26  24  92 N9        30.05S FOG     WCI  17
$$

IAZ001>003-012>014-020>022-031-032-NEZ013-014-SDZ071-170500-
NORTHWEST IOWA

CITY           SKY/WX    TMP DP  RH WIND       PRES   REMARKS
CHEROKEE       CLOUDY    32  29  89 NE6       30.02S WCI  26
ESTHERVILLE    MOCLDY    25  25 100 NE10      30.04S FOG     WCI  15
LE MARS        MOCLDY    32  28  86 NE8       30.02S WCI  25
ORANGE CITY    PTCLDY    32  28  86 NE5       30.02F WCI  27
SHELDON        PTCLDY    25  25 100 NE6       30.01F WCI  18
SIOUX CITY     PTCLDY    35  29  78 NE9       30.02R WCI  28
SPENCER        PTCLDY    27  24  89 NE9       30.03F WCI  18
STORM LAKE     MIX PCPN  30  28  93 NE18      30.00S WCI  18
$$

ABBREVIATIONS USED IN REMARKS
   TC - TEMPERATURE IN CELSIUS
  WCI - WIND CHILL INDEX
   HX - HEAT INDEX
  VSB - VISIBILITY





USA.gov is the U.S. government's official web portal to all federal, state and local government web resources and services.